Location: Observatoire
(46.1952°N, 5.3391°E)
Time: 22:10:43
(UTC+01:00)

A-11 Canister half - Pass Details

Date: 20 February 2026
Orbit: 1525 x 1683 km, 47.3° (Epoch: 5 March)

Event Time Altitude Azimuth Distance (km) Brightness Sun altitude
Rises 17:18:39 0° 244° (WSW) 4,728 14.2 7.8°
Reaches altitude 10° 17:21:44 10° 243° (WSW) 3,729 14.4 7.3°
Maximum altitude 17:31:07 79° 159° (SSE) 1,557 9.2 5.8°
Drops below altitude 10° 17:40:24 10° 75° (ENE) 3,695 10.4 4.3°
Sets 17:43:26 0° 74° (ENE) 4,683 10.8 3.8°
